Hourly Data Report for October 02, 2017

All times are specified in Local Standard Time (LST). Add 1 hour to adjust for Daylight Saving Time where and when it is observed.

KELOWNA UBCO
BRITISH COLUMBIA

49°56'26.700" N
119°24'00.760" W
456.00 m
1123996
71644
VKU

Download Data

Hourly Data (October 2017)
Hourly Data Report for October 2, 2017
Temp Definition
°C
Dew Point Temp Definition
°C
Rel Hum Definition
%
Wind Dir Definition
10's deg

Wind Spd Definition
km/h
Visibility Definition
km
Stn Press Definition
kPa
Hmdx Definition


Wind Chill Definition


Weather Definition


TIME
00:00 8.8 3.4 69       96.58     LegendNANA
01:00 9.3 2.7 64       96.60     LegendNANA
02:00 9.2 2.9 65       96.62     LegendNANA
03:00 8.7 1.8 62       96.65     LegendNANA
04:00 6.9 2.2 72       96.70     LegendNANA
05:00 4.9 1.5 79       96.74     LegendNANA
06:00 5.0 1.9 80       96.78     LegendNANA
07:00 5.8 2.1 77       96.83     LegendNANA
08:00 8.7 2.3 64       96.88     LegendNANA
09:00 10.2 3.0 61       96.90     LegendNANA
10:00 10.7 0.8 50       96.93     LegendNANA
11:00 12.1 1.5 48       96.96     LegendNANA
12:00 13.5 -0.6 38       96.94     LegendNANA
13:00 14.0 -1.2 35       96.95     LegendNANA
14:00 13.2 -0.4 39       97.00     LegendNANA
15:00 11.8 1.9 51       97.09     LegendNANA
16:00 11.9 1.3 48       97.06     LegendNANA
17:00 11.7 1.7 50       97.08     LegendNANA
18:00 10.4 2.0 56       97.13     LegendNANA
19:00 7.7 1.8 66       97.17     LegendNANA
20:00 6.3 1.8 73       97.21     LegendNANA
21:00 4.8 1.4 79       97.23     LegendNANA
22:00 3.9 1.2 82       97.28     LegendNANA
23:00 3.3 0.8 84       97.32     LegendNANA

Notes on Data Quality.

Legend

  • E = Estimated
  • M = Missing
  • NA = Not Available
  • ‡ = Partner data that is not subject to review by the National Climate Archives
Date modified: